< < Back
Terminal Aerodrome Forecast


Current Version              Previous Versions:   1  2  3  4  5  6  7  8  9  

Terminal Aerodrome Forecast

420
FTUS42 KFFC 030520
TAFMCN
TAF
KMCN 030520Z 0306/0406 00000KT P6SM FEW100 BKN250
      TEMPO 0308/0312 5SM BR
     FM031400 30004KT P6SM SCT045 BKN200
     FM031700 30006KT P6SM SCT050 BKN200 PROB30 0320/0324 -SHRA
      BKN050
     FM040000 00000KT P6SM SCT060 SCT150=



Latest METAR

712
SAUS80 KWBC 031100 RRB
MTRMCN
METAR KMCN 031053Z AUTO 00000KT 7SM CLR 22/21 A2997 RMK AO2 SLP144
T02220211 TSNO


USA.gov is the U.S. government's official web portal to all federal, state and local government web resources and services.